Terminal Aerodrome Forecast
Issued by NWS Columbia, SC

Home | Current Version | Previous Version | Text Only | Print | Product List | Glossary On
Versions: 1 2 3 4 5 6 7 8 9 10 11 12 13 14 15 16 17 18 19 20 21 22 23 24 25 26 27 28 29 30 31 32 33 34 35 36 37 38 39 40 41
000
FTAK31 PAJN 301500 AAA
TAFAGS
TAF AMD
PAGS 301507Z 3015/0112 19006KT P6SM OVC040
      TEMPO 3015/3018 5SM BR OVC025
     FM302000 19006KT P6SM VCSH SCT030 OVC070
     FM010300 23005KT P6SM VCSH BKN025 OVC050
      AMD LTD TO CLD VIS AND WIND=

USA.gov is the U.S. government's official web portal to all federal, state and local government web resources and services.